EN

Hourly Weather Alveslohe

Today, 17 January, Sunday

Time Temperature Precipitation Wind Pressure Humidity
00:00 -2°C° 0 mm 2 mps 761 mmHg 91%
01:00 -2°C° 0 mm 2 mps 760 mmHg 93%
02:00 -2°C° 0 mm 2 mps 760 mmHg 93%
03:00 -2°C° 0 mm 2 mps 760 mmHg 92%
04:00 -2°C° 0 mm 2 mps 759 mmHg 92%
05:00 -2°C° 0 mm 2 mps 759 mmHg 91%
06:00 -2°C° 0 mm 2 mps 759 mmHg 91%
07:00 -4°C° 0 mm 3 mps 759 mmHg 90%
08:00 -2°C° 0 mm 3 mps 759 mmHg 87%
09:00 -2°C° 0 mm 3 mps 760 mmHg 85%
10:00 -2°C° 0 mm 3 mps 760 mmHg 83%
11:00 -1°C° 0 mm 3 mps 760 mmHg 78%
12:00 -1°C° 0 mm 3 mps 760 mmHg 74%
13:00 0°C° 0 mm 3 mps 761 mmHg 69%
14:00 -1°C° 0 mm 3 mps 760 mmHg 71%
15:00 -1°C° 0 mm 2 mps 760 mmHg 73%
16:00 -1°C° 0 mm 2 mps 760 mmHg 76%
17:00 -2°C° 0 mm 2 mps 761 mmHg 77%
18:00 -2°C° 0 mm 2 mps 761 mmHg 78%
19:00 -2°C° 0 mm 2 mps 761 mmHg 79%
20:00 -2°C° 0 mm 2 mps 761 mmHg 81%
21:00 -2°C° 0 mm 2 mps 761 mmHg 83%
22:00 -2°C° 0 mm 2 mps 761 mmHg 86%
23:00 -2°C° 0 mm 2 mps 761 mmHg 89%

Tomorrow, 18 January, Monday

Time Temperature Precipitation Wind Pressure Humidity
00:00 -2°C° 0 mm 2 mps 761 mmHg 92%
01:00 -2°C° 0 mm 2 mps 761 mmHg 95%
02:00 -1°C° 0 mm 2 mps 760 mmHg 96%
03:00 -1°C° 0 mm 2 mps 760 mmHg 96%
04:00 +1°C° 0 mm 2 mps 760 mmHg 97%
05:00 -1°C° 0 mm 3 mps 760 mmHg 97%
06:00 -1°C° 0 mm 3 mps 760 mmHg 96%
07:00 -1°C° 0 mm 3 mps 760 mmHg 96%
08:00 -1°C° 0.2 mm 4 mps 759 mmHg 96%
09:00 -1°C° 0.2 mm 4 mps 759 mmHg 97%
10:00 0°C° 0.2 mm 5 mps 759 mmHg 97%
11:00 0°C° 0.7 mm 5 mps 758 mmHg 96%
12:00 +1°C° 0.7 mm 6 mps 758 mmHg 96%
13:00 +1°C° 0.7 mm 6 mps 758 mmHg 96%
14:00 +1°C° 0.7 mm 6 mps 757 mmHg 96%
15:00 +1°C° 0.7 mm 6 mps 757 mmHg 96%
16:00 +1°C° 0.7 mm 6 mps 757 mmHg 96%
17:00 +1°C° 0.5 mm 6 mps 757 mmHg 95%
18:00 +1°C° 0.5 mm 5 mps 757 mmHg 95%
19:00 +1°C° 0.5 mm 5 mps 757 mmHg 95%
20:00 +1°C° 0.5 mm 5 mps 757 mmHg 95%
21:00 +1°C° 0.5 mm 5 mps 756 mmHg 94%
22:00 +1°C° 0.5 mm 5 mps 756 mmHg 94%
23:00 +1°C° 0.2 mm 5 mps 756 mmHg 94%

Day after tomorrow, 19 January, Tuesday

Time Temperature Precipitation Wind Pressure Humidity
00:00 0°C° 0.2 mm 5 mps 756 mmHg 94%
01:00 0°C° 0.2 mm 5 mps 755 mmHg 94%
02:00 0°C° 0 mm 5 mps 755 mmHg 94%
03:00 0°C° 0 mm 5 mps 754 mmHg 94%
04:00 0°C° 0 mm 4 mps 753 mmHg 95%
05:00 0°C° 0.8 mm 4 mps 753 mmHg 96%
06:00 0°C° 0.8 mm 4 mps 752 mmHg 96%
07:00 0°C° 0.8 mm 4 mps 751 mmHg 97%
08:00 0°C° 0.8 mm 4 mps 750 mmHg 97%
09:00 +1°C° 0.8 mm 4 mps 749 mmHg 97%
10:00 +1°C° 0.8 mm 4 mps 749 mmHg 97%
11:00 +1°C° 0.4 mm 4 mps 748 mmHg 97%
12:00 +2°C° 0.4 mm 3 mps 747 mmHg 96%
13:00 +2°C° 0.4 mm 3 mps 747 mmHg 96%
14:00 +3°C° 0.5 mm 3 mps 747 mmHg 97%
15:00 +3°C° 0.5 mm 3 mps 746 mmHg 98%
16:00 +3°C° 0.5 mm 3 mps 746 mmHg 98%
17:00 +4°C° 1.5 mm 3 mps 746 mmHg 97%
18:00 +5°C° 1.5 mm 4 mps 745 mmHg 97%
19:00 +6°C° 1.5 mm 5 mps 745 mmHg 96%
20:00 +5°C° 1.5 mm 6 mps 745 mmHg 95%
21:00 +5°C° 1.5 mm 6 mps 745 mmHg 94%
22:00 +6°C° 1.5 mm 7 mps 745 mmHg 92%
23:00 +5°C° 0.4 mm 7 mps 745 mmHg 91%

20 January, Wednesday

Time Temperature Precipitation Wind Pressure Humidity
00:00 +5°C° 0.4 mm 8 mps 745 mmHg 89%
01:00 +5°C° 0.4 mm 8 mps 745 mmHg 87%
02:00 +5°C° 0.6 mm 8 mps 745 mmHg 88%
03:00 +5°C° 0.6 mm 8 mps 744 mmHg 88%
04:00 +5°C° 0.6 mm 8 mps 744 mmHg 89%
05:00 +5°C° 0.5 mm 8 mps 744 mmHg 89%
06:00 +5°C° 0.5 mm 8 mps 744 mmHg 88%
07:00 +5°C° 0.5 mm 8 mps 744 mmHg 88%
08:00 +5°C° 0.2 mm 8 mps 744 mmHg 88%
09:00 +5°C° 0.2 mm 8 mps 744 mmHg 87%
10:00 +5°C° 0.2 mm 8 mps 744 mmHg 87%
11:00 +5°C° 0 mm 7 mps 744 mmHg 85%
12:00 +5°C° 0 mm 7 mps 744 mmHg 83%
13:00 +5°C° 0 mm 7 mps 744 mmHg 82%
14:00 +5°C° 0.1 mm 6 mps 744 mmHg 81%
15:00 +5°C° 0.1 mm 6 mps 744 mmHg 80%
16:00 +6°C° 0.1 mm 5 mps 744 mmHg 80%
17:00 +6°C° 0 mm 5 mps 744 mmHg 77%
18:00 +6°C° 0 mm 5 mps 744 mmHg 75%
19:00 +6°C° 0 mm 5 mps 744 mmHg 72%
20:00 +5°C° 0 mm 6 mps 744 mmHg 74%
21:00 +5°C° 0 mm 6 mps 743 mmHg 76%
22:00 +5°C° 0 mm 6 mps 743 mmHg 79%
23:00 +5°C° 0 mm 6 mps 743 mmHg 80%

21 January, Thursday

Time Temperature Precipitation Wind Pressure Humidity
00:00 +5°C° 0 mm 6 mps 742 mmHg 81%
01:00 +5°C° 0 mm 6 mps 742 mmHg 82%
02:00 +5°C° 0 mm 6 mps 741 mmHg 80%
03:00 +5°C° 0 mm 6 mps 741 mmHg 79%
04:00 +5°C° 0 mm 6 mps 740 mmHg 78%
05:00 +5°C° 0 mm 6 mps 739 mmHg 76%
06:00 +6°C° 0 mm 7 mps 739 mmHg 74%
07:00 +6°C° 0 mm 7 mps 738 mmHg 72%
08:00 +6°C° 0.1 mm 8 mps 738 mmHg 73%
09:00 +6°C° 0.1 mm 8 mps 738 mmHg 74%
10:00 +6°C° 0.1 mm 9 mps 738 mmHg 74%
11:00 +6°C° 0.2 mm 9 mps 738 mmHg 71%
12:00 +5°C° 0.2 mm 9 mps 738 mmHg 67%
13:00 +5°C° 0.2 mm 9 mps 739 mmHg 63%
14:00 +5°C° 0 mm 8 mps 739 mmHg 64%
15:00 +5°C° 0 mm 8 mps 739 mmHg 65%
16:00 +4°C° 0 mm 7 mps 739 mmHg 65%
17:00 +4°C° 0.5 mm 8 mps 738 mmHg 72%
18:00 +2°C° 0.5 mm 8 mps 738 mmHg 78%
19:00 +2°C° 0.5 mm 9 mps 738 mmHg 84%
20:00 +2°C° 0.1 mm 9 mps 738 mmHg 81%
21:00 +2°C° 0.1 mm 8 mps 738 mmHg 79%
22:00 +2°C° 0.1 mm 8 mps 738 mmHg 76%
23:00 +2°C° 0.1 mm 9 mps 738 mmHg 76%

22 January, Friday

Time Temperature Precipitation Wind Pressure Humidity
00:00 +2°C° 0.1 mm 9 mps 738 mmHg 75%
01:00 +2°C° 0.1 mm 9 mps 738 mmHg 75%
02:00 +2°C° 0 mm 9 mps 738 mmHg 76%
03:00 +2°C° 0 mm 9 mps 738 mmHg 76%
04:00 +1°C° 0 mm 9 mps 738 mmHg 77%
05:00 +1°C° 0 mm 8 mps 739 mmHg 78%
06:00 +1°C° 0 mm 8 mps 739 mmHg 80%
07:00 +1°C° 0 mm 8 mps 739 mmHg 81%
08:00 +2°C° 0 mm 7 mps 739 mmHg 81%
09:00 +2°C° 0 mm 7 mps 740 mmHg 81%
10:00 +2°C° 0 mm 7 mps 740 mmHg 81%
11:00 +2°C° 0 mm 7 mps 740 mmHg 78%
12:00 +3°C° 0 mm 7 mps 741 mmHg 74%
13:00 +3°C° 0 mm 7 mps 741 mmHg 71%
14:00 +3°C° 0 mm 7 mps 741 mmHg 72%
15:00 +3°C° 0 mm 6 mps 741 mmHg 73%
16:00 +3°C° 0 mm 5 mps 742 mmHg 74%
17:00 +2°C° 0 mm 5 mps 742 mmHg 77%
18:00 +1°C° 0 mm 5 mps 742 mmHg 80%
19:00 +1°C° 0 mm 5 mps 743 mmHg 83%
20:00 0°C° 0 mm 4 mps 743 mmHg 84%
21:00 0°C° 0 mm 4 mps 743 mmHg 86%
22:00 0°C° 0 mm 4 mps 744 mmHg 87%
23:00 0°C° 0 mm 4 mps 744 mmHg 87%
Show more